This demonstration page uses our WeatherBlox Daily Observations layout. Learn more.

Left ArrowRight Arrow

Hourly Observations for October 26, 2021

Temp ( °F °C ) Dew Point ( °F °C ) Humidity (%) Winds ( mph kmh ) Pressure ( in mb ) Visibility ( mi km ) Precip ( " mm )
12:35 am 00:35 Cloudy 43 6 43 6 100 100 SE 15 24 29.96 1015 10 16 0.00 0.00
12:56 am 00:56 Cloudy 43 6.1 42 5.6 97 97 SE 16 26 29.93 1014 10 16 0.00 0.00
1:04 am 01:04 Cloudy 43 6 43 6 100 100 SE 16 26 29.95 1014 9 14 0.00 0.00
1:56 am 01:56 Cloudy with Mist and Fog 44 6.7 43 6.1 96 96 SE 15 24 29.91 1013 6 10 0.00 0.00
2:38 am 02:38 Cloudy with Mist and Fog 45 7 43 6 93 93 SE 18 30 29.90 1013 3 4 0.00 0.00
2:56 am 02:56 Cloudy with Mist and Fog 44 6.7 43 6.1 96 96 SE 15 24 29.88 1012 2 3 0.00 0.00
3:15 am 03:15 Cloudy with Mist and Fog 45 7 45 7 100 100 SSE 17 28 29.89 1012 4 6 0.00 0.00
3:56 am 03:56 Cloudy 46 7.8 44 6.7 93 93 SSE 17 28 29.85 1011 10 16 0.00 0.00
4:20 am 04:20 Cloudy 46 8 45 7 93 93 SSE 15 24 29.85 1011 10 16 0.00 0.00
4:54 am 04:54 Cloudy 46 8 45 7 93 93 SE 21 33 29.83 1010 10 16 0.00 0.00
4:56 am 04:56 Cloudy 46 7.8 44 6.7 93 93 SE 22 35 29.82 1010 10 16 0.00 0.00
5:56 am 05:56 Cloudy 46 7.8 44 6.7 93 93 SSE 18 30 29.81 1010 10 16 0.00 0.00
6:56 am 06:56 Cloudy 46 7.8 44 6.7 93 93 SSE 18 30 29.79 1009 10 16 0.00 0.00
7:56 am 07:56 Cloudy 46 7.8 44 6.7 93 93 SE 17 28 29.76 1008 10 16 0.00 0.00
8:56 am 08:56 Cloudy 47 8.3 44 6.7 90 90 SSE 21 33 29.74 1007 10 16 0.00 0.00
9:56 am 09:56 Cloudy 47 8.3 44 6.7 90 90 SSE 18 30 29.71 1006 10 16 0.00 0.00
10:56 am 10:56 Cloudy 48 8.9 46 7.8 93 93 SSE 16 26 29.68 1005 10 16 0.00 0.00
11:12 am 11:12 Cloudy 48 9 46 8 94 94 SSE 18 30 29.68 1005 7 11 0.00 0.00
11:43 am 11:43 Cloudy with Mist and Fog 48 9 46 8 94 94 SSE 18 30 29.67 1005 5 8 0.00 0.00
11:56 am 11:56 Cloudy with Mist and Fog 49 9.4 48 8.9 97 97 SE 16 26 29.66 1004 4 6 0.00 0.00
12:56 pm 12:56 Cloudy with Mist and Fog 52 11.1 51 10.6 97 97 SSE 20 31 29.62 1003 4 6 0.00 0.00
1:56 pm 13:56 Cloudy 53 11.7 52 11.1 96 96 SSE 17 28 29.57 1002 7 11 0.00 0.00
2:18 pm 14:18 Cloudy 54 12 54 12 100 100 SE 20 31 29.55 1001 9 14 0.00 0.00
2:46 pm 14:46 Cloudy 55 13 54 12 94 94 SE 18 30 29.52 1000 10 16 0.00 0.00
2:56 pm 14:56 Cloudy 56 13.3 53 11.7 90 90 SE 15 24 29.53 1000 10 16 0.00 0.00
3:19 pm 15:19 Cloudy 57 14 54 12 88 88 SE 20 31 29.48 998 10 16 0.00 0.00
3:43 pm 15:43 Cloudy 61 16 55 13 83 83 SE 24 39 29.46 998 10 16 0.00 0.00
3:56 pm 15:56 Cloudy 61 16.1 55 12.8 81 81 SSE 28 44 29.48 998 10 16 0.00 0.00
4:43 pm 16:43 Cloudy 61 16 55 13 83 83 SE 25 41 29.45 997 10 16 0.00 0.00
4:56 pm 16:56 Cloudy 61 16.1 57 13.9 87 87 SSE 26 43 29.47 998 10 16 0.00 0.00
5:25 pm 17:25 Cloudy 61 16 57 14 88 88 SSE 18 30 29.45 997 10 16 0.00 0.00
5:56 pm 17:56 Cloudy 60 15.6 58 14.4 93 93 SE 18 30 29.49 999 10 16 0.00 0.00
6:13 pm 18:13 Cloudy 59 15 57 14 94 94 SE 17 28 29.47 998 8 13 0.00 0.00
6:29 pm 18:29 Cloudy with Mist and Fog 59 15 57 14 94 94 SE 23 37 29.46 997 5 8 0.00 0.00
6:56 pm 18:56 Cloudy with Mist and Fog 59 15 58 14.4 96 96 SE 23 37 29.47 998 4 6 0.00 0.00
7:37 pm 19:37 Cloudy 61 16 59 15 94 94 SE 24 39 29.43 997 7 11 0.00 0.00
7:56 pm 19:56 Cloudy 62 16.7 60 15.6 93 93 SE 24 39 29.46 998 9 14 0.00 0.00
8:05 pm 20:05 Cloudy 63 17 61 16 94 94 SE 25 41 29.42 996 9 14 0.00 0.00
8:56 pm 20:56 Cloudy 62 16.7 59 15 90 90 ESE 20 31 29.45 997 10 16 0.00 0.00
9:49 pm 21:49 Cloudy 61 16 57 14 88 88 SE 18 30 29.44 997 10 16 0.00 0.00
9:56 pm 21:56 Cloudy 61 16.1 58 14.4 90 90 SE 20 31 29.47 998 10 16 0.00 0.00
10:22 pm 22:22 Cloudy with Nearby Thunderstorms 61 16 57 14 88 88 SSE 16 26 29.47 998 10 16 0.00 0.00
10:35 pm 22:35 Cloudy with Strong Thunderstorms 57 14 54 12 88 88 S 25 41 29.56 1001 4 6 0.10 2.54
10:44 pm 22:44 Cloudy with Thunderstorms 57 14 54 12 88 88 SW 17 28 29.52 1000 8 13 0.14 3.56
10:56 pm 22:56 Cloudy with Thunderstorms 56 13.3 54 12.2 93 93 SW 8 13 29.53 1000 10 16 0.16 4.06
11:14 pm 23:14 Cloudy with Nearby Thunderstorms 55 13 54 12 94 94 VRB 3 6 29.54 1000 9 14 0.03 0.76
11:35 pm 23:35 Cloudy with Light Rain 57 14 54 12 88 88 VRB 5 7 29.50 999 10 16 0.05 1.27
11:56 pm 23:56 Cloudy with Light Rain 60 15.6 54 12.2 80 80 ESE 29 46 29.44 997 10 16 0.08 2.03

Powered by AerisWeather